TRA80F GCFV-EHAM

Flight info

Callsign TRA80F
Flight time N/A
Altitude 38000
Route VASTO DCT BAROK DCT SOTEX DCT TOFEF DCT BARDI DCT ZMR DCT NUBLO DCT RONSI DCT DELOG DCT DIDIG DCT USODA DCT ERCUT DCT DITAL UN873 BAZOS DCT BELDI DCT VEKIN DCT ADUTO N873 FERDI Y18 DENUT
Aircraft B738/M-SDE2E3FGHIJ1RWXYZ/LB1

Departure

Time N/A
Airport Fuerteventura Airport (GCFV)

Arrival

Time 2026-05-05 21:22
Airport Amsterdam Airport Schiphol (EHAM)
Time Latitude Longitude Altitude Speed Heading
2026-05-05 21:03 51.49774 3.64980 18343 ft 333 kts
2026-05-05 21:03 51.52078 3.64908 17976 ft 331 kts
2026-05-05 21:03 51.54346 3.64837 17623 ft 329 kts
2026-05-05 21:03 51.56622 3.64766 17280 ft 326 kts
2026-05-05 21:04 51.58877 3.64694 16959 ft 323 kts
2026-05-05 21:04 51.61112 3.64623 16627 ft 320 kts
2026-05-05 21:04 51.63331 3.64554 16300 ft 318 kts
2026-05-05 21:04 51.65536 3.64484 15975 ft 315 kts 360°
2026-05-05 21:05 51.67721 3.64415 15644 ft 313 kts 360°
2026-05-05 21:05 51.69892 3.64432 15316 ft 311 kts
2026-05-05 21:05 51.71905 3.65560 14996 ft 307 kts 32°
2026-05-05 21:05 51.73484 3.67812 14684 ft 304 kts 53°
2026-05-05 21:06 51.74665 3.70619 14390 ft 301 kts 57°
2026-05-05 21:06 51.75779 3.73476 14065 ft 300 kts 58°
2026-05-05 21:06 51.76881 3.76337 13743 ft 299 kts 58°
2026-05-05 21:06 51.77981 3.79184 13396 ft 299 kts 57°
2026-05-05 21:07 51.79082 3.82020 13059 ft 297 kts 57°
2026-05-05 21:07 51.80179 3.84834 12734 ft 295 kts 57°
2026-05-05 21:07 51.81271 3.87628 12425 ft 293 kts 57°
2026-05-05 21:07 51.82357 3.90402 12105 ft 292 kts 57°
2026-05-05 21:08 51.83440 3.93169 11799 ft 290 kts 57°
2026-05-05 21:08 51.84515 3.95917 11493 ft 288 kts 57°
2026-05-05 21:08 51.85583 3.98649 11188 ft 287 kts 57°
2026-05-05 21:08 51.86646 4.01369 10874 ft 285 kts 57°
2026-05-05 21:09 51.87702 4.04072 10589 ft 284 kts 57°
2026-05-05 21:09 51.88754 4.06772 10283 ft 283 kts 57°
2026-05-05 21:09 51.89796 4.09448 10089 ft 278 kts 57°
2026-05-05 21:09 51.91055 4.11723 9941 ft 269 kts 33°
2026-05-05 21:10 51.92749 4.12882 9703 ft 265 kts 11°
2026-05-05 21:10 51.94571 4.13009 9446 ft 261 kts 357°
2026-05-05 21:10 51.96375 4.12797 9190 ft 259 kts 356°
2026-05-05 21:10 51.98167 4.12564 8929 ft 257 kts 356°
2026-05-05 21:11 51.99946 4.12347 8667 ft 255 kts 356°
2026-05-05 21:11 52.01706 4.12146 8424 ft 253 kts 356°
2026-05-05 21:11 52.03455 4.11953 8183 ft 251 kts 357°
2026-05-05 21:11 52.05185 4.11764 7938 ft 248 kts 357°
2026-05-05 21:12 52.06893 4.11872 7675 ft 245 kts 16°
2026-05-05 21:12 52.08453 4.12929 7470 ft 241 kts 25°
2026-05-05 21:12 52.09967 4.14094 7230 ft 240 kts 25°
2026-05-05 21:12 52.11472 4.15249 6998 ft 238 kts 25°
2026-05-05 21:13 52.12969 4.16394 6772 ft 237 kts 25°
2026-05-05 21:13 52.14458 4.17528 6545 ft 236 kts 25°
2026-05-05 21:13 52.15922 4.18642 6311 ft 235 kts 25°
2026-05-05 21:13 52.17402 4.19768 6076 ft 234 kts 25°
2026-05-05 21:14 52.18873 4.20888 5835 ft 233 kts 25°
2026-05-05 21:14 52.20230 4.22279 5574 ft 232 kts 45°
2026-05-05 21:14 52.21099 4.24473 5381 ft 232 kts 64°
2026-05-05 21:14 52.21672 4.26924 5156 ft 231 kts 68°
2026-05-05 21:15 52.22205 4.29403 4935 ft 231 kts 68°
2026-05-05 21:15 52.22742 4.31872 4710 ft 230 kts 68°
2026-05-05 21:15 52.23278 4.34317 4475 ft 228 kts 69°
2026-05-05 21:15 52.23444 4.36883 4231 ft 231 kts 95°
2026-05-05 21:16 52.22962 4.39372 4037 ft 230 kts 110°
2026-05-05 21:16 52.22291 4.41693 3821 ft 223 kts 111°
2026-05-05 21:16 52.21622 4.43934 3585 ft 216 kts 111°
2026-05-05 21:16 52.20996 4.46109 3391 ft 206 kts 104°
2026-05-05 21:17 52.20842 4.48312 3245 ft 190 kts 85°
2026-05-05 21:17 52.20820 4.50428 3058 ft 184 kts 88°
2026-05-05 21:17 52.20845 4.52458 2859 ft 174 kts 73°
2026-05-05 21:17 52.21448 4.54041 2695 ft 160 kts 49°
2026-05-05 21:18 52.22010 4.55587 2478 ft 154 kts 61°
2026-05-05 21:18 52.22536 4.57050 2291 ft 147 kts 56°
2026-05-05 21:18 52.23078 4.58458 2115 ft 147 kts 56°
2026-05-05 21:18 52.23604 4.59832 2030 ft 140 kts 56°
2026-05-05 21:19 52.23941 4.60715 1925 ft 138 kts 56°
2026-05-05 21:19 52.24455 4.62061 1737 ft 142 kts 55°
2026-05-05 21:19 52.24977 4.63427 1535 ft 142 kts 55°
2026-05-05 21:19 52.25668 4.65240 1290 ft 140 kts 55°
2026-05-05 21:20 52.26178 4.66592 1076 ft 142 kts 55°
2026-05-05 21:20 52.26702 4.67963 880 ft 141 kts 55°
2026-05-05 21:20 52.27056 4.68878 719 ft 143 kts 55°
2026-05-05 21:20 52.27589 4.70272 495 ft 145 kts 54°
2026-05-05 21:21 52.28119 4.71659 327 ft 144 kts 55°
2026-05-05 21:21 52.28640 4.73029 167 ft 142 kts 56°
2026-05-05 21:21 52.29170 4.74404 0 ft 141 kts 57°
2026-05-05 21:21 52.29581 4.75462 -3 ft 80 kts 57°
2026-05-05 21:22 52.29780 4.75971 -4 ft 39 kts 59°
2026-05-05 21:22 52.29918 4.76340 -5 ft 36 kts 58°
2026-05-05 21:22 52.30086 4.76587 -3 ft 31 kts 25°
2026-05-05 21:22 52.30267 4.76736 -2 ft 26 kts 31°
2026-05-05 21:23 52.30366 4.76965 -2 ft 24 kts 60°
2026-05-05 21:23 52.30453 4.77188 -2 ft 23 kts 57°
2026-05-05 21:23 52.30538 4.77402 -2 ft 22 kts 58°
2026-05-05 21:23 52.30636 4.77579 -2 ft 21 kts 17°
2026-05-05 21:24 52.30772 4.77598 -2 ft 12 kts
2026-05-05 21:24 52.30828 4.77529 -2 ft 11 kts 290°
2026-05-05 21:24 52.30837 4.77409 -2 ft 10 kts 273°
2026-05-05 21:24 52.30841 4.77304 -2 ft 6 kts 274°
2026-05-05 21:25 52.30846 4.77244 -2 ft 4 kts 297°
2026-05-05 21:25 52.30873 4.77234 -2 ft 4 kts
2026-05-05 21:25 52.30885 4.77236 -2 ft 1 kts
2026-05-05 21:25 52.30893 4.77237 -2 ft 1 kts
2026-05-05 21:26 52.30899 4.77238 -2 ft 0 kts